Regional Weather Roundup
Issued by NWS

Home | Current Version | Previous Version | Graphics & Text | Print | Product List | Glossary Off
Versions: 1 2 3 4 5 6 7 8 9 10 11 12 13 14 15 16 17 18 19 20 21 22 23 24 25 26 27 28 29 30 31 32 33 34 35 36 37 38 39 40 41 42 43 44 45 46 47 48 49 50

000
ASUS43 KBIS 020010
RWRND

NORTH DAKOTA REGIONAL WEATHER ROUNDUP
NATIONAL WEATHER SERVICE BISMARCK ND
700 PM CDT MON SEP 01 2014

NOTE: "FAIR" INDICATES FEW OR NO CLOUDS BELOW 12,000 FEET WITH NO
SIGNIFICANT WEATHER AND/OR OBSTRUCTIONS TO VISIBILITY.


NDZ001>003-009>011-017-020100-
NORTHWEST NORTH DAKOTA

CITY           SKY/WX    TMP DP  RH WIND       PRES   REMARKS
WILLISTON      MOSUNNY   70  43  37 W9        29.82F
6HR MIN TEMP:  64; 6HR MAX TEMP:  74; 6HR PCP: TRACE;

MINOT          SUNNY     71  42  35 W8        29.77F
MINOT AFB      MOSUNNY   65  49  55 W7        29.77S
$$

NDZ018>021-031>035-040>046-020100-
SOUTHWEST NORTH DAKOTA

CITY           SKY/WX    TMP DP  RH WIND       PRES   REMARKS
BISMARCK       SUNNY     72  43  35 NW9       29.82F
6HR MIN TEMP:  70; 6HR MAX TEMP:  75;

DICKINSON      MOSUNNY   67  44  43 W13       29.85F
GARRISON         N/A     69  47  45 W7        29.80S
6HR MIN TEMP:  67; 6HR MAX TEMP:  73;

HETTINGER ARPT PTSUNNY   65  46  50 NW8       29.90S
$$

NDZ004>008-012>016-024-026-027-054-020100-
NORTHEAST NORTH DAKOTA

CITY           SKY/WX    TMP DP  RH WIND       PRES   REMARKS
GRAND FORKS    MOSUNNY   71  55  56 CALM      29.72F
GRND FRKS AFB  SUNNY     69  56  62 N2        29.74S
DEVILS LAKE    MOSUNNY   70  48  46 N15G22    29.75R
$$

NDZ022-023-025-028>030-036>039-047>053-020100-
SOUTHEAST NORTH DAKOTA

CITY           SKY/WX    TMP DP  RH WIND       PRES   REMARKS
FARGO          MOSUNNY   65  55  70 N9        29.74R
6HR MIN TEMP:  64; 6HR MAX TEMP:  78;

JAMESTOWN      SUNNY     69  52  54 NW10      29.77S
$$



USA.gov is the U.S. government's official web portal to all federal, state and local government web resources and services.